User: anonymous   Login
Location: Unspecified
(0.0000°N, 0.0000°E)
Time: 07:22:41
(UTC+00:00)
Language:

Elektron 1 - Orbit

View from above orbital plane
View from above orbital plane
View from above satellite
View from above satellite

Ground track
Ground track

The orbit data is extracted from the following two-line orbital elements,

1 00746U 64006A   21067.76343712  .00000499  00000-0  13944-3 0  9998
2 00746  60.8294 261.9747 3039345  94.7859 300.1226  9.03877391892575
Epoch (UTC): 08 March 2021 18:19:20
Eccentricity: 0.3039345
inclination: 60.8294°
perigee height: 398 km
apogee height: 6315 km
right ascension of ascending node: 261.9747°
argument of perigee: 94.7859°
revolutions per day: 9.03877391
mean anomaly at epoch: 300.1226°
orbit number at epoch: 89257

The dashed part of the orbit path shows where the satellite is in the earth's shadow,  

DLR